Probability
85 84 84 81 75 71 69 63 58 57 53 40 31 30 28 20 14 18 30 46 56 58 55 44 30 18 11 8 8 8 8 6 3 1 0 0 0 1 1 1 0 0 0
85 83 81 79 75 75 75 70 65 62 57 46 37 32 30 24 20 23 31 42 49 48 47 41 29 19 14 10 9 8 8 6 5 3 1 0 0 2 3 2 1 1 0
84 82 79 77 77 78 77 72 66 62 57 51 42 33 31 30 27 27 30 35 36 34 34 34 30 24 19 15 11 10 9 9 8 7 5 3 1 2 4 4 3 2 1
79 77 74 73 76 78 73 66 60 55 52 48 40 31 29 30 28 25 25 28 28 25 24 26 29 27 22 18 15 13 13 13 13 12 11 7 4 4 4 4 3 1 0
68 66 61 62 66 69 66 58 52 50 47 40 31 24 25 27 26 22 20 23 23 20 17 18 21 21 19 17 18 20 19 19 18 16 15 13 9 7 5 3 2 1 0
52 49 46 47 50 54 55 49 45 46 42 34 22 18 22 23 20 18 16 16 15 13 13 16 17 15 11 12 18 24 25 23 19 18 18 17 15 11 7 4 1 1 1
35 32 30 33 36 39 42 41 40 39 35 28 20 16 15 15 13 12 11 10 6 6 11 17 19 15 9 8 14 21 25 22 20 20 20 20 19 16 13 8 3 0 0
24 20 19 21 23 26 31 34 35 31 26 22 18 12 9 8 7 7 7 6 4 5 8 13 18 17 13 10 9 14 17 19 21 24 23 20 19 19 18 13 5 1 1
19 17 15 15 16 19 23 26 26 23 20 17 14 10 9 9 8 5 4 4 5 5 5 7 12 16 15 12 9 7 9 13 19 22 21 19 17 16 15 12 6 2 1
15 16 16 16 17 18 19 20 20 20 17 14 12 13 15 15 10 4 2 3 6 6 4 3 7 13 14 12 9 5 3 6 10 14 14 15 15 12 9 8 5 3 2
13 14 14 16 19 19 18 17 19 21 20 16 14 18 20 18 13 7 2 3 6 7 5 4 7 12 14 12 8 4 1 1 3 5 6 9 11 8 5 4 4 3 3
12 11 11 13 16 18 18 17 18 22 22 21 21 22 23 20 17 12 6 3 4 7 8 7 7 11 13 10 6 3 1 0 0 1 2 4 4 4 2 2 2 3 4
13 13 12 11 13 14 16 16 17 18 20 21 22 24 24 23 21 18 12 7 5 7 10 9 9 9 10 8 4 1 0 0 0 0 0 1 1 0 0 0 1 2 3
13 14 14 14 13 12 13 14 14 14 14 14 16 21 24 25 23 21 19 16 11 9 9 10 12 12 12 10 5 1 0 0 0 0 0 0 0 0 0 0 0 1 1
11 12 13 14 14 12 11 11 11 11 11 9 11 16 20 23 24 23 24 23 17 13 10 13 18 18 16 11 4 1 0 0 0 0 0 0 0 0 0 0 0 0 0
10 9 9 10 12 13 12 10 9 9 9 7 7 10 14 18 22 25 25 24 20 16 13 17 25 29 23 12 4 1 1 0 0 0 0 0 0 0 0 0 0 0 0
8 7 5 5 8 11 10 7 5 6 6 5 4 5 8 11 16 20 22 22 20 18 15 17 26 35 33 22 10 4 2 0 0 0 0 0 0 0 0 0 0 0 0
5 4 3 2 3 4 5 3 2 3 4 3 3 3 3 5 9 13 17 17 16 16 15 15 20 29 33 29 17 8 3 0 0 0 0 0 0 0 0 0 0 0 0
2 1 1 1 1 1 1 1 2 3 3 2 2 2 1 2 5 8 11 12 10 11 13 13 15 20 24 23 18 10 3 0 0 0 0 0 0 0 0 0 0 0 0
2 1 0 0 1 2 1 2 3 4 3 1 2 1 1 2 4 4 5 7 7 7 9 10 12 16 17 15 12 7 3 1 1 0 0 0 0 0 0 0 0 0 0
1 1 0 0 1 2 1 2 3 3 3 1 1 1 1 1 1 1 2 3 4 5 6 6 8 11 13 10 6 3 2 2 2 1 1 1 0 0 0 0 0 0 0
1 1 0 0 1 1 1 1 1 2 3 2 1 1 0 0 0 0 0 1 1 2 3 2 3 5 7 7 4 2 2 3 3 3 3 2 1 0 0 0 0 0 0
1 1 0 0 1 1 0 0 1 2 2 2 1 1 0 0 0 0 0 0 0 1 1 1 0 2 4 5 5 4 4 4 4 6 5 4 3 1 0 0 0 0 0
1 0 0 0 0 0 0 0 1 1 1 1 1 1 1 1 0 0 0 0 0 0 0 0 0 0 1 3 4 3 2 2 3 6 6 5 3 1 0 0 0 0 0
0 0 1 0 0 0 0 0 0 0 0 0 0 0 1 1 0 0 0 0 1 1 1 0 0 0 0 1 1 1 1 0 1 3 5 5 2 1 0 0 0 0 0
0 0 1 0 0 0 0 0 0 0 0 0 0 0 0 1 0 0 0 0 1 2 1 0 0 0 0 0 0 1 1 1 0 2 4 5 2 0 0 0 0 0 0
Wind_Speed
3 3 2 2 3 4 5 5 5 6 6 6 6 7 7 8 7 4 4 14 17 17 18 18 17 17 17 17 17 17 17 17 16 15 14 14 13 13 12 12 11 11 10
3 3 3 3 3 3 3 4 5 4 4 5 6 6 7 7 5 5 4 8 14 15 16 17 18 18 18 18 17 17 17 18 17 16 16 16 14 14 13 13 12 12 11
3 3 3 4 4 3 3 2 4 3 4 6 7 8 7 7 6 6 5 4 6 12 16 17 17 18 18 19 19 18 18 18 17 17 17 17 16 15 14 14 14 13 12
3 3 3 4 4 3 3 3 3 4 5 5 5 6 6 6 7 7 6 6 6 7 12 18 18 18 18 19 19 19 18 18 18 18 18 18 17 16 16 15 15 14 14
3 2 3 4 4 3 4 5 4 4 4 4 5 6 6 6 7 8 7 8 7 7 6 13 19 18 18 19 19 19 19 19 18 19 19 19 18 17 17 16 16 15 15
3 3 4 5 5 3 4 4 4 5 4 4 6 6 5 5 6 6 7 8 7 9 9 10 10 13 18 18 18 18 19 19 18 18 19 19 19 18 17 17 17 16 16
2 3 5 5 4 4 5 5 4 5 5 4 4 4 4 5 6 5 6 6 8 10 9 8 7 7 8 16 17 17 18 19 19 19 18 18 18 18 18 18 18 17 17
3 3 5 5 4 4 5 5 4 3 5 5 4 3 3 4 5 8 6 6 6 6 7 9 8 8 6 6 10 16 16 17 18 18 18 17 17 17 18 19 18 18 18
3 3 4 4 4 4 4 5 5 5 4 3 4 4 3 3 3 3 6 6 5 4 5 5 8 8 8 6 7 12 15 15 15 17 16 16 16 15 16 18 18 18 18
3 3 3 4 3 3 3 4 5 4 4 3 4 3 1 0 1 2 3 4 6 5 4 5 6 6 7 5 7 11 15 15 14 15 16 16 15 15 16 17 18 18 18
4 4 3 2 2 2 2 2 2 1 2 3 3 2 3 2 3 2 3 3 3 4 4 4 3 5 6 5 5 9 13 14 14 14 14 14 15 15 15 17 18 18 19
3 4 3 1 2 2 1 1 1 2 3 3 3 2 2 2 2 2 3 4 4 4 5 4 4 4 4 5 6 10 11 12 12 11 11 12 13 13 14 16 17 18 19
4 3 2 2 2 2 2 2 2 3 3 4 3 3 3 3 2 2 2 2 3 3 4 4 4 4 5 5 6 11 10 11 10 9 9 9 10 11 11 13 14 16 17
5 4 3 3 3 3 3 2 2 3 3 3 4 3 3 3 3 2 1 1 2 2 2 3 3 4 4 6 9 10 7 10 10 9 8 8 8 9 9 10 11 12 13
7 5 4 4 4 4 3 3 3 3 3 3 3 3 3 3 3 3 2 1 2 2 3 3 3 4 4 6 10 6 6 9 10 9 8 8 8 8 9 9 10 10 11
7 7 6 6 5 4 4 5 4 4 4 3 3 4 3 3 3 3 2 2 2 2 2 2 2 4 5 6 8 6 6 10 9 9 8 8 8 8 8 9 9 10 10
8 8 7 6 6 6 5 5 5 6 5 5 4 4 4 4 3 2 2 2 2 2 3 2 1 3 4 5 5 4 6 5 5 8 8 7 7 7 7 7 8 9 9
8 8 7 6 7 7 5 5 6 7 6 6 5 5 5 4 4 3 3 3 3 2 3 3 2 3 3 5 6 5 5 5 4 7 8 7 6 5 5 6 6 7 7
9 9 8 7 7 7 7 6 6 7 6 5 5 5 5 4 4 3 4 4 3 4 3 3 4 3 3 4 5 5 4 3 4 6 8 7 6 5 4 4 4 4 5
9 9 8 8 8 7 8 7 7 7 7 6 5 5 5 5 5 4 5 4 4 4 4 3 4 4 4 5 5 5 4 3 3 4 5 6 6 6 4 3 2 2 3
10 8 8 8 7 7 9 8 7 9 7 7 6 5 6 6 6 4 4 3 4 4 4 4 4 4 4 5 6 5 5 4 4 4 4 4 4 3 3 3 3 2 2
8 8 8 8 8 10 9 8 7 7 6 6 6 6 6 6 7 7 7 5 4 4 4 3 4 4 5 6 5 6 5 5 4 4 4 3 3 3 3 4 4 4 4
8 8 8 9 9 9 9 9 10 6 6 5 6 5 7 8 8 6 9 10 8 8 7 4 5 4 4 4 4 5 5 5 4 5 5 3 3 4 4 5 7 6 6
8 8 8 9 8 9 9 9 9 7 6 6 6 6 6 7 7 5 5 7 7 8 9 7 5 5 4 3 4 4 4 3 3 3 4 3 3 4 4 4 6 7 7
8 8 8 8 7 7 8 8 9 6 6 7 7 8 8 8 8 8 5 5 5 5 9 11 10 8 7 5 4 3 4 5 4 3 3 4 4 4 3 3 4 7 8
8 8 7 6 6 6 6 8 9 5 6 6 6 6 9 9 9 9 7 6 6 5 5 5 7 7 7 7 9 7 6 6 4 4 5 5 5 5 4 3 3 3 4
Wind_Direction
222 251 260 246 216 202 194 204 210 214 220 222 225 217 217 218 229 222 179 183 185 187 189 192 198 204 208 207 204 203 201 200 198 196 197 198 197 194 192 191 190 188 186
205 219 231 238 247 242 213 194 210 205 215 223 227 227 224 225 227 226 196 191 194 195 197 199 204 208 211 212 209 206 205 204 200 198 198 200 200 198 195 195 195 194 192
221 222 231 231 231 236 236 223 222 204 214 220 220 226 223 222 221 217 209 194 197 207 210 210 211 212 213 213 213 210 208 206 202 200 200 200 200 199 198 197 197 197 197
267 248 244 247 242 233 223 223 226 217 220 223 221 221 218 208 216 214 208 199 198 207 214 219 218 215 214 215 215 213 211 208 205 203 203 203 202 201 200 200 200 200 200
300 280 261 258 256 245 230 229 220 219 222 223 229 220 214 205 205 214 207 206 201 202 203 214 217 215 215 217 217 215 212 210 208 207 206 205 205 204 203 203 203 203 202
317 293 268 257 253 247 243 230 222 218 220 222 240 233 210 207 201 204 204 208 201 204 206 207 204 213 216 217 215 214 213 209 206 207 208 209 209 207 205 205 206 206 206
289 282 271 263 245 240 243 232 218 223 222 216 228 239 228 216 209 199 201 204 201 202 201 194 188 194 207 214 214 213 213 211 208 208 209 210 210 209 207 207 208 208 208
275 268 262 264 255 245 242 231 217 227 226 205 206 218 211 211 217 208 192 200 205 193 191 191 185 187 197 191 206 209 212 213 211 209 209 209 210 210 209 209 209 210 210
263 266 264 257 254 247 252 248 226 224 230 224 215 212 203 198 184 193 196 191 180 178 186 185 183 182 191 185 188 203 207 207 209 209 209 209 208 208 209 210 211 212 212
275 259 262 262 261 253 251 257 238 231 220 238 238 237 230 54 168 159 208 180 167 177 189 194 186 175 183 180 182 187 198 203 207 210 212 211 209 210 212 214 214 214 214
259 253 249 253 252 251 258 281 310 270 232 235 248 252 240 220 224 192 188 168 171 174 184 189 178 174 178 177 176 183 187 196 203 208 211 212 214 214 215 216 218 219 218
261 254 244 242 259 243 239 251 266 271 269 265 267 262 245 232 233 218 183 179 185 188 180 173 174 171 170 173 175 166 172 184 194 202 205 208 215 219 219 219 221 222 223
286 263 252 230 246 253 246 222 218 246 254 265 265 267 269 256 259 253 217 199 187 181 163 166 175 170 174 142 143 154 162 171 181 190 195 201 209 216 220 222 224 226 227
289 287 263 237 224 225 239 226 223 230 232 239 250 257 273 276 282 277 248 211 199 177 173 183 173 170 158 139 149 155 158 170 177 184 191 196 204 210 215 219 223 226 228
293 298 297 273 251 237 232 230 239 232 229 235 241 240 247 266 271 277 279 248 206 201 203 202 169 158 143 126 153 159 151 167 174 183 192 199 206 211 216 219 222 226 228
290 289 283 275 263 250 237 230 232 233 225 225 230 231 227 234 259 275 271 270 251 216 216 209 174 150 148 147 165 156 147 160 171 180 188 196 204 211 218 220 222 224 226
294 287 280 277 269 256 241 235 237 229 225 224 230 229 229 227 222 243 263 257 246 229 220 228 177 143 144 141 152 151 151 165 171 182 184 188 195 206 215 220 222 222 223
290 287 279 270 268 262 245 235 244 244 228 223 225 226 229 233 223 225 231 249 252 243 221 216 188 163 165 155 160 168 175 179 154 165 171 175 182 194 204 212 215 215 216
289 285 278 270 261 260 253 238 241 250 246 232 226 226 225 224 225 229 226 227 236 245 227 209 201 183 183 180 166 177 183 157 157 157 157 158 159 160 168 183 196 203 208
282 278 274 269 261 254 251 244 240 241 241 236 232 230 230 226 222 224 235 228 227 235 236 224 204 191 191 187 173 175 174 166 175 169 142 144 147 147 143 146 161 181 194
284 281 278 272 268 258 247 238 232 237 229 227 228 227 230 228 223 217 236 223 229 228 225 224 214 197 199 187 188 187 181 169 178 165 146 143 142 134 129 115 99 96 128
284 282 279 274 266 260 253 238 235 242 226 221 229 229 229 226 220 216 214 209 207 227 235 230 227 209 203 200 193 194 180 174 179 166 151 141 133 117 97 81 81 93 99
290 281 275 271 264 260 254 239 230 238 231 220 225 228 241 237 213 209 211 211 215 220 216 224 243 240 218 201 191 193 188 183 177 156 141 137 122 102 87 79 76 80 87
291 282 278 273 264 258 245 229 220 229 236 226 222 218 225 241 240 225 225 217 210 210 208 209 223 239 246 222 194 199 190 169 141 149 142 134 128 110 100 85 73 81 89
289 282 278 268 260 249 233 222 211 229 233 232 230 224 221 223 224 220 223 233 231 226 219 212 206 216 227 217 188 172 171 165 169 170 157 138 135 123 112 102 90 88 91
287 284 277 272 260 247 223 214 212 230 233 234 235 233 232 228 213 210 213 219 229 233 240 221 208 214 219 216 200 190 187 180 172 174 171 148 148 143 134 122 123 117 99